• In Uzbekistan
  • List of Countries
  • For 7 days
  • Water Temperature
  • Satellite Maps
  • Weather Map
  • Weather Widgets
  • user-avatar
    Login

    Hourly Weather Innsbruck

    Today, 25 September, Tuesday

    Time Temperature Precipitation Wind Pressure Humidity
    00:00 -3°C° 0 mm 1 mps 602 mmHg 89%
    01:00 -3°C° 0 mm 1 mps 602 mmHg 89%
    02:00 -3°C° 0 mm 1 mps 602 mmHg 87%
    03:00 -3°C° 0 mm 1 mps 602 mmHg 86%
    04:00 -3°C° 0 mm 1 mps 602 mmHg 85%
    05:00 -3°C° 0 mm 1 mps 603 mmHg 81%
    06:00 -2°C° 0 mm 1 mps 603 mmHg 78%
    07:00 -2°C° 0 mm 1 mps 603 mmHg 75%
    08:00 -2°C° 0 mm 2 mps 604 mmHg 64%
    09:00 +2°C° 0 mm 2 mps 605 mmHg 54%
    10:00 +4°C° 0 mm 2 mps 606 mmHg 44%
    11:00 +5°C° 0 mm 2 mps 606 mmHg 41%
    12:00 +6°C° 0 mm 2 mps 607 mmHg 39%
    13:00 +7°C° 0 mm 2 mps 607 mmHg 37%
    14:00 +7°C° 0 mm 2 mps 607 mmHg 40%
    15:00 +6°C° 0 mm 2 mps 606 mmHg 43%
    16:00 +5°C° 0 mm 3 mps 606 mmHg 45%
    17:00 +3°C° 0 mm 2 mps 605 mmHg 57%
    18:00 +2°C° 0 mm 1 mps 605 mmHg 69%
    19:00 -1°C° 0 mm 1 mps 604 mmHg 81%
    20:00 -1°C° 0 mm 1 mps 604 mmHg 79%
    21:00 -1°C° 0 mm 1 mps 604 mmHg 76%
    22:00 -1°C° 0 mm 1 mps 604 mmHg 74%
    23:00 -1°C° 0 mm 1 mps 605 mmHg 71%

    Tomorrow, 26 September, Wednesday

    Time Temperature Precipitation Wind Pressure Humidity
    00:00 -1°C° 0 mm 1 mps 605 mmHg 68%
    01:00 -3°C° 0 mm 2 mps 605 mmHg 65%
    02:00 -3°C° 0 mm 2 mps 605 mmHg 66%
    03:00 -2°C° 0 mm 2 mps 605 mmHg 67%
    04:00 -2°C° 0 mm 2 mps 604 mmHg 67%
    05:00 -2°C° 0 mm 2 mps 605 mmHg 65%
    06:00 +1°C° 0 mm 1 mps 605 mmHg 63%
    07:00 +1°C° 0 mm 1 mps 605 mmHg 61%
    08:00 +5°C° 0 mm 1 mps 607 mmHg 50%
    09:00 +8°C° 0 mm 1 mps 608 mmHg 40%
    10:00 +11°C° 0 mm 1 mps 610 mmHg 29%
    11:00 +12°C° 0 mm 1 mps 610 mmHg 28%
    12:00 +13°C° 0 mm 1 mps 610 mmHg 27%
    13:00 +14°C° 0 mm 1 mps 610 mmHg 26%
    14:00 +14°C° 0 mm 1 mps 610 mmHg 30%
    15:00 +13°C° 0 mm 1 mps 609 mmHg 34%
    16:00 +13°C° 0 mm 2 mps 609 mmHg 39%
    17:00 +9°C° 0 mm 1 mps 607 mmHg 51%
    18:00 +6°C° 0 mm 1 mps 606 mmHg 63%
    19:00 +3°C° 0 mm 1 mps 605 mmHg 75%
    20:00 +3°C° 0 mm 1 mps 605 mmHg 72%
    21:00 +3°C° 0 mm 1 mps 605 mmHg 69%
    22:00 +3°C° 0 mm 1 mps 605 mmHg 66%
    23:00 +3°C° 0 mm 1 mps 605 mmHg 62%

    Day after tomorrow, 27 September, Thursday

    Time Temperature Precipitation Wind Pressure Humidity
    00:00 +3°C° 0 mm 1 mps 605 mmHg 59%
    01:00 +3°C° 0 mm 1 mps 605 mmHg 56%
    02:00 +3°C° 0 mm 1 mps 605 mmHg 53%
    03:00 +3°C° 0 mm 1 mps 604 mmHg 49%
    04:00 +3°C° 0 mm 1 mps 604 mmHg 46%
    05:00 +3°C° 0 mm 1 mps 604 mmHg 46%
    06:00 +4°C° 0 mm 1 mps 605 mmHg 46%
    07:00 +4°C° 0 mm 1 mps 605 mmHg 46%
    08:00 +8°C° 0 mm 1 mps 606 mmHg 40%
    09:00 +11°C° 0 mm 1 mps 608 mmHg 35%
    10:00 +14°C° 0 mm 1 mps 609 mmHg 29%
    11:00 +15°C° 0 mm 1 mps 609 mmHg 29%
    12:00 +16°C° 0 mm 1 mps 609 mmHg 29%
    13:00 +18°C° 0 mm 1 mps 609 mmHg 28%
    14:00 +16°C° 0 mm 1 mps 608 mmHg 32%
    15:00 +15°C° 0 mm 1 mps 608 mmHg 36%
    16:00 +15°C° 0 mm 1 mps 607 mmHg 40%
    17:00 +12°C° 0 mm 1 mps 605 mmHg 52%
    18:00 +8°C° 0 mm 1 mps 604 mmHg 64%
    19:00 +4°C° 0 mm 0 mps 602 mmHg 76%
    20:00 +5°C° 0 mm 1 mps 602 mmHg 75%
    21:00 +5°C° 0 mm 1 mps 602 mmHg 74%
    22:00 +4°C° 0 mm 1 mps 602 mmHg 73%
    23:00 +4°C° 0 mm 1 mps 602 mmHg 72%

    28 September, Friday

    Time Temperature Precipitation Wind Pressure Humidity
    00:00 +4°C° 0 mm 1 mps 601 mmHg 72%
    01:00 +4°C° 0 mm 1 mps 601 mmHg 71%
    02:00 +4°C° 0 mm 1 mps 600 mmHg 70%
    03:00 +4°C° 0 mm 1 mps 600 mmHg 69%
    04:00 +3°C° 0 mm 1 mps 600 mmHg 68%
    05:00 +4°C° 0 mm 1 mps 600 mmHg 66%
    06:00 +4°C° 0 mm 1 mps 600 mmHg 64%
    07:00 +5°C° 0 mm 1 mps 600 mmHg 61%
    08:00 +8°C° 0 mm 1 mps 601 mmHg 53%
    09:00 +11°C° 0 mm 1 mps 602 mmHg 45%
    10:00 +13°C° 0 mm 1 mps 604 mmHg 38%
    11:00 +14°C° 0 mm 2 mps 604 mmHg 37%
    12:00 +15°C° 0 mm 2 mps 604 mmHg 37%
    13:00 +16°C° 0 mm 2 mps 604 mmHg 37%
    14:00 +15°C° 0 mm 2 mps 603 mmHg 42%
    15:00 +14°C° 0 mm 2 mps 602 mmHg 47%
    16:00 +14°C° 0 mm 2 mps 602 mmHg 52%
    17:00 +10°C° 0 mm 2 mps 601 mmHg 65%
    18:00 +8°C° 0 mm 1 mps 600 mmHg 78%
    19:00 +6°C° 0 mm 1 mps 599 mmHg 90%
    20:00 +6°C° 0 mm 1 mps 599 mmHg 91%
    21:00 +6°C° 0 mm 1 mps 599 mmHg 93%
    22:00 +6°C° 0 mm 1 mps 600 mmHg 94%
    23:00 +6°C° 0 mm 1 mps 599 mmHg 94%

    29 September, Saturday

    Time Temperature Precipitation Wind Pressure Humidity
    00:00 +6°C° 0 mm 1 mps 599 mmHg 95%
    01:00 +6°C° 0 mm 1 mps 599 mmHg 95%
    02:00 +6°C° 0 mm 1 mps 599 mmHg 95%
    03:00 +5°C° 0 mm 1 mps 599 mmHg 95%
    04:00 +5°C° 0 mm 1 mps 599 mmHg 95%
    05:00 +5°C° 0 mm 1 mps 599 mmHg 94%
    06:00 +5°C° 0 mm 1 mps 599 mmHg 94%
    07:00 +5°C° 0 mm 1 mps 599 mmHg 93%
    08:00 +6°C° 0 mm 1 mps 599 mmHg 88%
    09:00 +6°C° 0 mm 1 mps 600 mmHg 84%
    10:00 +7°C° 0 mm 1 mps 600 mmHg 79%
    11:00 +8°C° 0 mm 1 mps 600 mmHg 77%
    12:00 +7°C° 0 mm 2 mps 600 mmHg 75%
    13:00 +7°C° 0 mm 2 mps 600 mmHg 73%
    14:00 +7°C° 0 mm 2 mps 600 mmHg 74%
    15:00 +7°C° 0 mm 2 mps 600 mmHg 76%
    16:00 +7°C° 0 mm 2 mps 599 mmHg 77%
    17:00 +7°C° 0 mm 1 mps 599 mmHg 83%
    18:00 +5°C° 0 mm 1 mps 599 mmHg 89%
    19:00 +4°C° 0 mm 1 mps 598 mmHg 95%
    20:00 +4°C° 0 mm 1 mps 598 mmHg 95%
    21:00 +4°C° 0 mm 1 mps 599 mmHg 95%
    22:00 +4°C° 0 mm 1 mps 599 mmHg 96%
    23:00 +3°C° 0 mm 1 mps 598 mmHg 96%

    30 September, Sunday

    Time Temperature Precipitation Wind Pressure Humidity
    00:00 +3°C° 0 mm 1 mps 598 mmHg 96%
    01:00 +3°C° 0 mm 1 mps 598 mmHg 96%
    02:00 +3°C° 0 mm 1 mps 598 mmHg 95%
    03:00 +2°C° 0 mm 1 mps 597 mmHg 95%
    04:00 +2°C° 0 mm 1 mps 597 mmHg 95%
    05:00 +3°C° 0 mm 1 mps 597 mmHg 94%
    06:00 +3°C° 0 mm 1 mps 598 mmHg 94%
    07:00 +3°C° 0 mm 1 mps 598 mmHg 93%
    08:00 +5°C° 0 mm 1 mps 599 mmHg 84%
    09:00 +8°C° 0 mm 1 mps 600 mmHg 75%
    10:00 +10°C° 0 mm 1 mps 601 mmHg 66%
    11:00 +11°C° 0 mm 1 mps 601 mmHg 63%
    12:00 +11°C° 0 mm 1 mps 601 mmHg 59%
    13:00 +12°C° 0 mm 1 mps 601 mmHg 56%
    14:00 +10°C° 0 mm 2 mps 601 mmHg 61%
    15:00 +9°C° 0 mm 2 mps 600 mmHg 66%
    16:00 +9°C° 0 mm 2 mps 600 mmHg 71%
    17:00 +7°C° 0 mm 2 mps 600 mmHg 79%
    18:00 +6°C° 0 mm 2 mps 600 mmHg 86%
    19:00 +6°C° 0 mm 1 mps 599 mmHg 94%
    20:00 +5°C° 0 mm 1 mps 599 mmHg 94%
    21:00 +5°C° 0 mm 1 mps 600 mmHg 95%
    22:00 +5°C° 0 mm 1 mps 600 mmHg 95%
    23:00 +4°C° 0 mm 1 mps 600 mmHg 95%
    Show more